Location: Eymir
(36.7333°N, 29.7833°E)
Time: 01:06:27
(UTC+00:00)

VELOX 1 - Pass Details

Date: 21 May 2026
Orbit: 569 x 578 km, 98.3° (Epoch: 10 June)

Event Time Altitude Azimuth Distance (km) Brightness Sun altitude
Rises 21:24:42 0° 12° (NNE) 2,794 ? -32.4°
Reaches altitude 10° 21:26:52 10° 12° (NNE) 1,893 ? -32.5°
Enters shadow 21:28:23 22° 11° (N) 1,274 ? -32.5°
